Location: ??
(35.4032°N, 139.3073°E)
Time: 03:37:28
(UTC+00:00)

Cosmos 2333 Rocket - Pass Details

Date: 13 April 2024
Orbit: 839 x 862 km, 70.8° (Epoch: 25 May)

Event Time Altitude Azimuth Distance (km) Brightness Sun altitude
Exits shadow 17:17:03 15° 328° (NNW) 2,102 4.3 -32.3°
Drops below altitude 10° 17:18:54 10° 346° (NNW) 2,460 4.9 -32.1°
Sets 17:22:12 0° 6° (N) 3,398 6.0 -31.6°
